マクノート彗星

C/2005 E2 ( McNaught )

English version
Home page
Total 6,336 html files since Dec. 4, 1995
Updated on March 12, 2008

---------------------------------------------------------------------

・ プロフィール

発見日 2005年3月12日
発見光度 16.5等
発見者 R. H. McNaught (Siding Spring)

・ 写真集

・ 軌道要素

The following orbital elements are taken from MPC 58118:

Epoch 2006 Mar. 6.0 TT = JDT 2453800.5
T 2006 Feb. 23.4757 TT                                  MPC
q   1.519593             (2000.0)            P               Q
z  -0.000099       Peri.   39.9680      +0.8785523      -0.4736695
 +/-0.000001       Node   347.8477      +0.3283263      +0.6924005
e   1.000151       Incl.   16.9885      +0.3469117      +0.5442598
From 757 observations 2005 Mar. 12-2006 Nov. 18, mean residual 0".6.

・ 星図

・ 光度変化

        m1 = 6.4 + 5 logΔ + 10.0 log r  [ ,0]  (              〜2006年 2月23日)
        m1 = 6.0 + 5 logΔ + 12.0 log r  [0, ]  (2006年 2月23日〜              )

---------------------------------------------------------------------

軌道要素はMPCのEphemerides and Orbital Elementsに掲載されたものです。
星図は StellaNavigator Ver.2.0 for Windows (アストロアーツ 編著 / アスキー出版局刊) で作成したものです。
光度グラフはComet for Windowsで作成したものです。

---------------------------------------------------------------------

Copyright(C) 1995-2008 Seiichi Yoshida (comet@aerith.net). All rights reserved.